Tiempo atmosférico en la estación meteorológica de Alcañices, Zamora (840 m.)



Fecha
DESCASC
Temp. máxima en grados centígrados (hora)
DESCASC
Temp. mínima en grados centígrados (hora)
DESCASC
Temp. media en grados centígrados
DESCASC
Racha de viento máxima en m/sg (hora)
DESCASC
Velocidad máxima media en intervalos de 10 minutos(hora)
DESCASC
Precipitaciones diarias en mm
DESCASC
Precipitaciones de 00:00 a 06:00 en mm
DESCASC
Precipitaciones de 06:00 a 12:00 en mm
DESCASC
Precipitaciones de 12:00 a 18:00 en mm
DESCASC
Precipitaciones de 18:00 a 24:00 en mm
DESCASC
22-01-2020 9.6 (14:40) 2.5 (03:50) 6.1 16.39 (06:30) 11.67 (06:10) 0.2 0 0.2 0 0
21-01-2020 6.4 (15:40) -0.5 (04:00) 3 17.78 (22:30) 12.22 (23:10) 0 0 0 0 0
20-01-2020 5.1 (14:10) -2.1 (05:50) 1.5 21.39 (12:00) 14.44 (11:30) 0 0 0 0 0
19-01-2020 9.5 (16:00) -0.3 (00:00) 4.6 20.28 (12:30) 13.06 (12:30) 0 0 0 0 0
18-01-2020 10 (16:10) 3.1 (00:00) 6.5 18.89 (17:00) 11.39 (17:20) 2.6 0 2.2 0.2 0.2
17-01-2020 8 (14:20) 3.3 (00:00) 5.6 11.39 (02:20) 8.06 (03:10) 0 0 0 0 0
16-01-2020 10.9 (13:20) 6.1 (00:00) 8.5 16.94 (13:30) 11.39 (12:00) 2.2 0.2 0 0 2
15-01-2020 10.8 (15:10) 5.5 (00:00) 8.2 18.89 (04:50) 11.39 (04:50) 9.4 0.2 7.6 0 1.6
14-01-2020 8.3 (14:10) 2.1 (00:00) 5.2 11.67 (21:30) 7.5 (21:10) 0.6 0 0 0 0.6
13-01-2020 6.1 (16:40) -5.2 (-00:0) 0.5 8.33 (16:30) 5.56 (15:50) 0 0 0 0 0
12-01-2020 0.7 (15:00) -6.8 (08:20) -3.1 3.61 (15:30) 3.06 (05:40) 0 0 0 0 0
11-01-2020 11.3 (15:30) -2.5 (-00:0) 4.4 4.17 (12:30) 3.33 (00:20) 0 0 0 0 0
10-01-2020 10.6 (15:00) -3 (-00:0) 3.8 7.5 (13:30) 5 (15:30) 0 0 0 0 0
09-01-2020 7.7 (15:40) -0.2 (00:00) 3.7 11.39 (15:30) 8.33 (15:30) 0 0 0 0 0
08-01-2020 17.2 (16:40) -5.1 (-00:0) 6.1 3.61 (12:50) 3.06 (22:30) 0 0 0 0 0
07-01-2020 8.2 (16:40) -3.4 (-00:0) 2.4 5 (00:10) 3.61 (00:10) 0 0 0 0 0
06-01-2020 2.9 (16:00) -5.3 (-00:0) -1.2 5.28 (23:59) 3.61 (23:40) 0 0 0 0 0
05-01-2020 11.7 (16:50) -2 (-00:0) 4.8 6.39 (00:50) 4.44 (01:10) 0 0 0 0 0
04-01-2020 5.3 (15:00) -0.5 (-00:0) 2.4 6.94 (15:40) 4.44 (17:50) 0 0 0 0 0
03-01-2020 9.9 (13:10) -0.7 (-00:0) 4.6 6.11 (05:00) 4.17 (05:00) 0 0 0 0 0
02-01-2020 10.4 (15:40) -6.7 (-00:0) 1.8 5.28 (16:40) 3.89 (21:40) 0 0 0 0 0
01-01-2020 16 (14:40) -5.1 (-00:0) 5.5 4.17 (08:10) 3.61 (21:20) 0 0 0 0 0
31-12-2019 18.4 (15:10) -1.8 (-00:0) 8.3 3.61 (04:50) 3.33 (04:50) 0 0 0 0 0
30-12-2019 -- (--) -- (--) -- -- (--) -- (--) -- 0 0 0 --
29-12-2019 14.6 (15:30) -1.6 (-00:0) 6.5 5.83 (05:00) 4.72 (05:00) 0 0 0 0 0
28-12-2019 18.6 (15:00) -3 (-00:0) 7.8 4.72 (05:50) 3.89 (05:50) 0 0 0 0 0
27-12-2019 7.8 (16:00) -1.3 (-00:0) 3.3 6.39 (06:00) 5 (01:10) 0 0 0 0 0
26-12-2019 8.6 (15:50) 0.9 (00:00) 4.8 6.11 (23:20) 3.89 (17:50) 0 0 0 0 0
25-12-2019 12.6 (16:00) 4 (00:00) 8.3 7.22 (02:20) 5.56 (02:20) 0 0 0 0 0
24-12-2019 17.5 (16:10) 8.1 (21:20) 12.8 6.67 (23:50) 5 (22:30) 0 0 0 0 0

Gráficas

Temp. máximas Temp. mínimas Temp. medias Precipitaciones Rachas de viento máximas Velocidades máximas media en intervalos de 10 minutos

Datos horarios

Fecha y hora oficial Temperatura (ºC) Velocidad del viento (km/h) Dirección del viento Racha (km/h) Dirección de racha Precipitación (mm) Presión (hPa) Tendencia (hPa) Humedad (%)
2020-01-22 23:00:00 4.6 17 Nordeste 30 Nordeste 0 -- -- --
2020-01-22 22:00:00 5 20 Nordeste 33 Nordeste 0 -- -- --
2020-01-22 21:00:00 3.8 10 Nordeste 15 Nordeste 0 -- -- --
2020-01-22 20:00:00 4.9 12 Nordeste 15 Nordeste 0 -- -- --
2020-01-22 19:00:00 6.2 9 Nordeste 22 Nordeste 0 -- -- --
2020-01-22 18:00:00 8 16 Nordeste 27 Nordeste 0 -- -- --
2020-01-22 17:00:00 7.8 19 Nordeste 30 Nordeste 0 -- -- --
2020-01-22 16:00:00 8.6 19 Nordeste 37 Nordeste 0 -- -- --
2020-01-22 15:00:00 7.7 23 Este 39 Nordeste 0 -- -- --
2020-01-22 14:00:00 8 27 Nordeste 41 Este 0 -- -- --
2020-01-22 13:00:00 7.4 31 Este 44 Nordeste 0 -- -- --
2020-01-22 12:00:00 6.1 32 Nordeste 50 Este 0 -- -- --
2020-01-22 11:00:00 6.1 34 Nordeste 50 Nordeste 0 -- -- --
2020-01-22 10:00:00 4.6 32 Nordeste 44 Nordeste 0 -- -- --
2020-01-22 09:00:00 3.6 27 Nordeste 39 Nordeste 0 -- -- --
2020-01-22 08:00:00 3.5 26 Nordeste 53 Este 0.2 -- -- --
2020-01-22 07:00:00 4.1 32 Nordeste 59 Nordeste 0 -- -- --
2020-01-22 06:00:00 4.3 38 Nordeste 53 Nordeste 0 -- -- --
2020-01-22 05:00:00 3.8 37 Nordeste 54 Nordeste 0 -- -- --
2020-01-22 04:00:00 2.6 28 Nordeste 45 Este 0 -- -- --
2020-01-22 03:00:00 2.8 32 Este 57 Nordeste 0 -- -- --
2020-01-22 02:00:00 2.9 37 Nordeste 58 Nordeste 0 -- -- --
2020-01-22 01:00:00 4 33 Nordeste 57 Nordeste 0 -- -- --
2020-01-22 00:00:00 6.1 40 Nordeste 62 Nordeste 0 -- -- --
2020-01-21 23:00:00 6.2 41 Nordeste 64 Nordeste 0 -- -- --
2020-01-21 22:00:00 5.8 39 Nordeste 61 Nordeste 0 -- -- --
2020-01-21 21:00:00 5.5 37 Nordeste 62 Nordeste 0 -- -- --
2020-01-21 20:00:00 4.8 34 Nordeste 53 Nordeste 0 -- -- --
2020-01-21 19:00:00 3.8 29 Nordeste 53 Este 0 -- -- --
2020-01-21 18:00:00 4.9 38 Nordeste 62 Nordeste 0 -- -- --
2020-01-21 17:00:00 6.1 35 Nordeste 55 Nordeste 0 -- -- --
2020-01-21 16:00:00 6.2 34 Nordeste 47 Nordeste 0 -- -- --
2020-01-21 15:00:00 5.7 28 Nordeste 45 Nordeste 0 -- -- --
2020-01-21 14:00:00 4.3 30 Nordeste 53 Nordeste 0 -- -- --
2020-01-21 13:00:00 4.4 37 Nordeste 60 Nordeste 0 -- -- --
2020-01-21 12:00:00 4.7 33 Nordeste 59 Nordeste 0 -- -- --
2020-01-21 11:00:00 4.7 37 Nordeste 53 Nordeste 0 -- -- --
2020-01-21 10:00:00 2.8 32 Nordeste 54 Nordeste 0 -- -- --
2020-01-21 09:00:00 1.7 29 Nordeste 60 Nordeste 0 -- -- --
2020-01-21 08:00:00 0.6 30 Nordeste 45 Nordeste 0 -- -- --
2020-01-21 07:00:00 0.2 22 Nordeste 46 Nordeste 0 -- -- --
2020-01-21 06:00:00 0 22 Nordeste 38 Norte 0 -- -- --
2020-01-21 05:00:00 0.1 27 Nordeste 42 Nordeste 0 -- -- --
2020-01-21 04:00:00 -0.5 15 Nordeste 42 Nordeste 0 -- -- --
2020-01-21 03:00:00 -0.1 32 Nordeste 42 Nordeste 0 -- -- --
2020-01-21 02:00:00 -0.3 30 Nordeste 44 Nordeste 0 -- -- --
2020-01-21 01:00:00 -0.3 28 Nordeste 44 Nordeste 0 -- -- --
2020-01-21 00:00:00 0.1 28 Nordeste 46 Nordeste 0 -- -- --
2020-01-20 23:00:00 0.9 30 Nordeste 45 Nordeste 0 -- -- --
2020-01-20 22:00:00 1.3 27 Nordeste 49 Nordeste 0 -- -- --
2020-01-20 21:00:00 2.1 31 Nordeste 52 Nordeste 0 -- -- --
2020-01-20 20:00:00 2.1 24 Nordeste 41 Nordeste 0 -- -- --
2020-01-20 19:00:00 2.4 32 Nordeste 49 Nordeste 0 -- -- --
2020-01-20 18:00:00 2.4 31 Nordeste 50 Nordeste 0 -- -- --
2020-01-20 17:00:00 2.3 34 Nordeste 62 Nordeste 0 -- -- --
2020-01-20 16:00:00 2.9 41 Nordeste 60 Nordeste 0 -- -- --
2020-01-20 15:00:00 3.6 32 Nordeste 59 Nordeste 0 -- -- --
2020-01-20 14:00:00 4.9 41 Nordeste 66 Nordeste 0 -- -- --
2020-01-20 13:00:00 4.6 36 Nordeste 72 Nordeste 0 -- -- --
2020-01-20 12:00:00 3.1 48 Nordeste 77 Nordeste 0 -- -- --
2020-01-20 11:00:00 2.5 41 Nordeste 66 Nordeste 0 -- -- --
2020-01-20 10:00:00 1.3 38 Nordeste 62 Nordeste 0 -- -- --
2020-01-20 09:00:00 -0.7 25 Nordeste 36 Nordeste 0 -- -- --
2020-01-20 08:00:00 -1.8 23 Nordeste 30 Nordeste 0 -- -- --
2020-01-20 07:00:00 -1.1 21 Este 47 Nordeste 0 -- -- --
2020-01-20 06:00:00 -2.1 20 Nordeste 29 Nordeste 0 -- -- --
2020-01-20 05:00:00 -1.6 20 Nordeste 31 Nordeste 0 -- -- --
2020-01-20 04:00:00 -1.1 23 Nordeste 30 Este 0 -- -- --
2020-01-20 03:00:00 -0.7 20 Nordeste 32 Nordeste 0 -- -- --
2020-01-20 02:00:00 -0.2 22 Nordeste 36 Nordeste 0 -- -- --
2020-01-20 01:00:00 -0.3 18 Este 39 Nordeste 0 -- -- --
2020-01-20 00:00:00 0.2 19 Nordeste 35 Nordeste 0 -- -- --
2020-01-19 23:00:00 0.5 21 Nordeste 34 Nordeste 0 -- -- --
2020-01-19 22:00:00 -0.3 13 Este 30 Nordeste 0 -- -- --
2020-01-19 21:00:00 0.6 12 Nordeste 31 Nordeste 0 -- -- --
2020-01-19 20:00:00 1.4 16 Norte 34 Norte 0 -- -- --
2020-01-19 19:00:00 3 21 Nordeste 49 Nordeste 0 -- -- --
2020-01-19 18:00:00 5.4 37 Nordeste 60 Nordeste 0 -- -- --
2020-01-19 17:00:00 7.2 32 Nordeste 62 Nordeste 0 -- -- --
2020-01-19 16:00:00 9.5 27 Nordeste 54 Nordeste 0 -- -- --
2020-01-19 15:00:00 9 40 Nordeste 66 Nordeste 0 -- -- --
2020-01-19 14:00:00 8.9 40 Nordeste 62 Nordeste 0 -- -- --
2020-01-19 13:00:00 8.4 29 Nordeste 73 Nordeste 0 -- -- --
2020-01-19 12:00:00 7.4 37 Nordeste 58 Norte 0 -- -- --
2020-01-19 11:00:00 6.8 29 Norte 49 Nordeste 0 -- -- --
2020-01-19 10:00:00 5.5 23 Nordeste 36 Norte 0 -- -- --
2020-01-19 09:00:00 3.4 18 Norte 39 Norte 0 -- -- --
2020-01-19 08:00:00 3.9 27 Norte 38 Norte 0 -- -- --
2020-01-19 07:00:00 1.3 9 Norte 14 Norte 0 -- -- --
2020-01-19 06:00:00 1 8 Noroeste 9 Noroeste 0 -- -- --
2020-01-19 05:00:00 0.9 3 Oeste 5 Oeste 0 -- -- --
2020-01-19 04:00:00 0.6 5 Oeste 6 Oeste 0 -- -- --
2020-01-19 03:00:00 1.8 4 Noroeste 8 Oeste 0 -- -- --
2020-01-19 02:00:00 2.3 5 Oeste 10 Noroeste 0 -- -- --
2020-01-19 01:00:00 2.5 3 Sudoeste 21 Oeste 0 -- -- --
2020-01-19 00:00:00 3.2 12 Oeste 21 Oeste 0 -- -- --
2020-01-18 23:00:00 4.1 10 Oeste 20 Oeste 0 -- -- --
2020-01-18 22:00:00 4.4 9 Oeste 21 Sudoeste 0 -- -- --
2020-01-18 21:00:00 4.8 19 Oeste 32 Oeste 0 -- -- --
2020-01-18 20:00:00 4.5 23 Oeste 40 Oeste 0 -- -- --
2020-01-18 19:00:00 5.2 21 Oeste 46 Noroeste 0.2 -- -- --
2020-01-18 18:00:00 8.3 27 Oeste 63 Oeste 0 -- -- --
2020-01-18 17:00:00 9.2 40 Oeste 68 Oeste 0 -- -- --
2020-01-18 16:00:00 9.6 37 Sudoeste 59 Sudoeste 0.2 -- -- --
2020-01-18 15:00:00 8.6 35 Sudoeste 55 Sudoeste 0 -- -- --
2020-01-18 14:00:00 7.8 26 Sudoeste 44 Sudoeste 0 -- -- --
2020-01-18 13:00:00 7.4 24 Sudoeste 39 Sudoeste 0 -- -- --
2020-01-18 12:00:00 6.9 21 Sudoeste 32 Sur 0 -- -- --
2020-01-18 11:00:00 6.4 17 Sudoeste 26 Sur 0 -- -- --
2020-01-18 10:00:00 5.8 17 Sur 26 Sur 0.2 -- -- --
2020-01-18 09:00:00 5.6 12 Sur 20 Sur 0.4 -- -- --
2020-01-18 08:00:00 4.8 7 Sudeste 13 Sudeste 0.4 -- -- --
2020-01-18 07:00:00 4.6 5 Sudeste 14 Sur 1.2 -- -- --
2020-01-18 06:00:00 4.2 4 Sudeste 18 Sudoeste 0 -- -- --
2020-01-18 05:00:00 4.7 14 Sudoeste 23 Sur 0 -- -- --
2020-01-18 04:00:00 3.9 5 Oeste 18 Sudeste 0 -- -- --
2020-01-18 03:00:00 3.2 5 Nordeste 12 Este 0 -- -- --
2020-01-18 02:00:00 3.7 5 Este 8 Nordeste 0 -- -- --
2020-01-18 01:00:00 3.7 5 Sudeste 6 Sudeste 0 -- -- --
2020-01-18 00:00:00 3.4 4 Sudeste 10 Nordeste 0 -- -- --
2020-01-17 23:00:00 3.6 3 Nordeste 11 Nordeste 0 -- -- --
2020-01-17 22:00:00 4.3 0 Calma 6 Sudoeste 0 -- -- --
2020-01-17 21:00:00 4.5 0 Calma 7 Sur 0 -- -- --
2020-01-17 20:00:00 4.8 4 Sudoeste 8 Oeste 0 -- -- --
2020-01-17 19:00:00 4.9 5 Oeste 12 Oeste 0 -- -- --
2020-01-17 18:00:00 6 5 Oeste -- -- 0 -- -- --
2020-01-17 17:00:00 7.2 12 Oeste 21 Oeste 0 -- -- --
2020-01-17 16:00:00 7.5 11 Oeste 29 Sudoeste 0 -- -- --
2020-01-17 15:00:00 7.6 16 Oeste 26 Oeste 0 -- -- --
2020-01-17 14:00:00 7.9 15 Oeste 27 Oeste 0 -- -- --
2020-01-17 13:00:00 7 15 Oeste 37 Sudoeste 0 -- -- --
2020-01-17 12:00:00 6.8 21 Sudoeste 31 Oeste 0 -- -- --
2020-01-17 11:00:00 6.7 21 Sudoeste 32 Sudoeste 0 -- -- --
2020-01-17 10:00:00 5.6 12 Sudoeste 21 Oeste 0 -- -- --
2020-01-17 09:00:00 4.3 13 Oeste 29 Sudoeste 0 -- -- --
2020-01-17 08:00:00 5 19 Oeste 28 Oeste 0 -- -- --
2020-01-17 07:00:00 5 18 Sudoeste 28 Sudoeste 0 -- -- --
2020-01-17 06:00:00 5.2 22 Sudoeste 33 Sudoeste 0 -- -- --
2020-01-17 05:00:00 6 21 Sudoeste 37 Sudoeste 0 -- -- --
2020-01-17 04:00:00 6.3 26 Sudoeste 41 Sudoeste 0 -- -- --
2020-01-17 03:00:00 6.2 24 Sudoeste 41 Sudoeste 0 -- -- --
2020-01-17 02:00:00 5.9 19 Sudoeste 36 Sudoeste 0 -- -- --
2020-01-17 01:00:00 5.6 24 Sudoeste 40 Sur 0 -- -- --
2020-01-17 00:00:00 6.1 23 Sudoeste 37 Sur 0 -- -- --
2020-01-16 23:00:00 6.4 20 Sudoeste 34 Sudoeste 0 -- -- --
2020-01-16 22:00:00 6.9 24 Sudoeste 45 Sudoeste 0.2 -- -- --
2020-01-16 21:00:00 7.2 32 Sudoeste 49 Sudoeste 0.6 -- -- --
2020-01-16 20:00:00 7.2 24 Sur 43 Sur 0.6 -- -- --
2020-01-16 19:00:00 7.4 23 Sur 43 Sur 0.6 -- -- --
2020-01-16 18:00:00 8.6 28 Sur 52 Sur 0 -- -- --
2020-01-16 17:00:00 9.2 34 Sur 58 Sur 0 -- -- --
2020-01-16 16:00:00 9.9 33 Sur 50 Sur 0 -- -- --
2020-01-16 15:00:00 10.3 32 Sudoeste 54 Sur 0 -- -- --
2020-01-16 14:00:00 10.2 34 Sur 61 Sudoeste 0 -- -- --
2020-01-16 13:00:00 10.3 32 Sur 53 Sur 0 -- -- --
2020-01-16 12:00:00 9.7 41 Sur 59 Sudoeste 0 -- -- --
2020-01-16 11:00:00 9.8 32 Sur 50 Sudoeste 0 -- -- --
2020-01-16 10:00:00 8.6 32 Sur 50 Sur 0 -- -- --
2020-01-16 09:00:00 8.3 27 Sur 43 Sur 0 -- -- --
2020-01-16 08:00:00 8.5 25 Sudoeste 47 Sudoeste 0 -- -- --
2020-01-16 07:00:00 8.6 24 Sudoeste 49 Sur 0 -- -- --
2020-01-16 06:00:00 8.6 28 Sur 45 Sur 0 -- -- --
2020-01-16 05:00:00 8.5 24 Sur 39 Sudoeste 0 -- -- --
2020-01-16 04:00:00 8.5 16 Sur 38 Sur 0 -- -- --
2020-01-16 03:00:00 8.4 19 Sur 38 Sur 0 -- -- --
2020-01-16 02:00:00 8.4 21 Sudoeste 37 Sur 0.2 -- -- --
2020-01-16 01:00:00 8.6 23 Sudoeste 39 Sur 0 -- -- --
2020-01-16 00:00:00 8.3 15 Sur 24 Sur 0 -- -- --
2020-01-15 23:00:00 8.4 15 Sur 30 Sur 0 -- -- --
2020-01-15 22:00:00 8.5 13 Sur 26 Sur 0 -- -- --
2020-01-15 21:00:00 8.5 17 Sur 32 Sur 0 -- -- --
2020-01-15 20:00:00 8.6 13 Sur 26 Sudoeste 1.4 -- -- --
2020-01-15 19:00:00 9.1 15 Sur 26 Sudoeste 0.2 -- -- --
2020-01-15 18:00:00 9.9 15 Sur 25 Sur 0 -- -- --
2020-01-15 17:00:00 10.3 16 Sur 27 Sur 0 -- -- --
2020-01-15 16:00:00 10 15 Sudoeste 28 Sudoeste 0 -- -- --
2020-01-15 15:00:00 10.5 20 Sudoeste 33 Sudoeste 0 -- -- --
2020-01-15 14:00:00 8.9 19 Sur 31 Sur 0 -- -- --
2020-01-15 13:00:00 8.5 19 Sur 36 Sur 0 -- -- --
2020-01-15 12:00:00 7.5 20 Sur 36 Sudoeste 0 -- -- --
2020-01-15 11:00:00 5.9 26 Sur 44 Sudoeste 3.4 -- -- --
2020-01-15 10:00:00 5.8 24 Oeste 41 Oeste 2.6 -- -- --
2020-01-15 09:00:00 6.4 27 Sudoeste 51 Sur 1.4 -- -- --
2020-01-15 08:00:00 6.7 28 Sur 50 Sur 0 -- -- --
2020-01-15 07:00:00 6.6 30 Sur 49 Sur 0.2 -- -- --
2020-01-15 06:00:00 6.8 33 Sur 58 Sudoeste 0 -- -- --
2020-01-15 05:00:00 6.7 35 Sur 68 Sudoeste 0.2 -- -- 2
2020-01-15 04:00:00 6.8 35 Sur 55 Sur 0 -- -- --
2020-01-15 03:00:00 6.5 33 Sur 57 Sur 0 -- -- --
2020-01-15 02:00:00 6.6 35 Sur 54 Sudoeste 0 -- -- --
2020-01-15 01:00:00 6.1 23 Sur 41 Sudoeste 0 -- -- --
2020-01-15 00:00:00 5.7 25 Sur 41 Sudoeste 0.2 -- -- --
2020-01-14 23:00:00 5.4 16 Sudoeste 36 Sur 0 -- -- --
2020-01-14 22:00:00 5.1 21 Sur 42 Sur 0.2 -- -- --
2020-01-14 21:00:00 5 25 Sur 40 Sur 0.2 -- -- 2
2020-01-14 20:00:00 5.5 23 Sudoeste 40 Sur 0 -- -- --
2020-01-14 19:00:00 5.9 22 Sur 33 Sur 0 -- -- --
2020-01-14 18:00:00 5.9 18 Sudoeste 38 Sur 0 -- -- --
2020-01-14 17:00:00 6.5 20 Sur 39 Sur 0 -- -- --
2020-01-14 16:00:00 7.7 22 Sur 37 Sur 0 -- -- --
2020-01-14 15:00:00 7.7 23 Sur 38 Sudoeste 0 -- -- --
2020-01-14 14:00:00 8 21 Sur 30 Sur 0 -- -- 2
2020-01-14 13:00:00 6.3 19 Sudoeste 33 Sudoeste 0 -- -- --
2020-01-14 12:00:00 5.1 16 Sudoeste 30 Sur 0 -- -- 93
2020-01-14 11:00:00 4.7 18 Sur 30 Sudoeste 0 -- -- --
2020-01-14 10:00:00 4 17 Sudoeste 34 Sudoeste 0 -- -- --
2020-01-14 09:00:00 3.6 14 Sudoeste 28 Sudoeste 0 -- -- --
2020-01-14 08:00:00 3.5 20 Sudoeste 33 Sudoeste 0 -- -- --
2020-01-14 07:00:00 3.5 16 Sur 28 Sur 0 -- -- --
2020-01-14 06:00:00 4.1 16 Sur 35 Sur 0 -- -- --
2020-01-14 05:00:00 3.8 17 Sudoeste 27 Sudoeste 0 -- -- --
2020-01-14 04:00:00 3.6 17 Sudoeste 38 Sudoeste 0 -- -- 93
2020-01-14 03:00:00 3.7 22 Sudoeste 41 Sudoeste 0 -- -- 99
2020-01-14 02:00:00 3.6 20 Sudoeste 35 Sur 0 -- -- 100
2020-01-14 01:00:00 3 14 Sudoeste 22 Sudoeste 0 -- -- 98
2020-01-14 00:00:00 2.6 13 Sudoeste 28 Sudoeste 0 -- -- 96
2020-01-13 23:00:00 2.1 14 Sudoeste 27 Sudoeste 0 -- -- 98
2020-01-13 22:00:00 1.1 11 Sudoeste 19 Oeste 0 -- -- 99
2020-01-13 21:00:00 0.9 10 Sudoeste 14 Oeste 0 -- -- 98
2020-01-13 20:00:00 0.8 10 Sudoeste 17 Sudoeste 0 -- -- 98
2020-01-13 19:00:00 1.3 14 Sudoeste 18 Sudoeste 0 -- -- 97
2020-01-13 18:00:00 4.2 14 Oeste 24 Sudoeste 0 -- -- 85
2020-01-13 17:00:00 5.9 17 Sudoeste 30 Sudoeste 0 -- -- 78
2020-01-13 16:00:00 5.8 17 Sudoeste 28 Sudoeste 0 -- -- 82
2020-01-13 15:00:00 3.8 13 Sudoeste 21 Sudoeste 0 -- -- 100
2020-01-13 14:00:00 -0.2 4 Sudoeste 8 Sudoeste 0 -- -- 100
2020-01-13 13:00:00 -0.4 5 Sudoeste 6 Sudoeste 0 -- -- --
2020-01-13 12:00:00 -1.4 2 Sudeste 4 Nordeste 0 -- -- --
2020-01-13 11:00:00 -2.3 3 Nordeste 4 Este 0 -- -- 100
2020-01-13 10:00:00 -4.1 4 Este 6 Este 0 -- -- 100
2020-01-13 09:00:00 -4.9 3 Nordeste 5 Este 0 -- -- 100
2020-01-13 08:00:00 -4.6 4 Nordeste 6 Este 0 -- -- 100
2020-01-13 07:00:00 -4.9 4 Este 7 Este 0 -- -- 100
2020-01-13 06:00:00 -4.9 5 Nordeste 8 Este 0 -- -- 100
2020-01-13 05:00:00 -4.8 5 Este 8 Este 0 -- -- 100
2020-01-13 04:00:00 -5.1 6 Este 9 Este 0 -- -- 100
2020-01-13 03:00:00 -5 6 Este 9 Este 0 -- -- 100
2020-01-13 02:00:00 -4.5 5 Este 8 Este 0 -- -- 100
2020-01-13 01:00:00 -4.4 4 Nordeste 9 Nordeste 0 -- -- 100
2020-01-13 00:00:00 -4.1 8 Este 12 Este 0 -- -- 100
2020-01-12 23:00:00 -3.9 8 Este 10 Nordeste 0 -- -- 100
2020-01-12 22:00:00 -3.5 8 Nordeste 9 Este 0 -- -- 100
2020-01-12 21:00:00 -3.2 6 Nordeste 11 Este 0 -- -- 100
2020-01-12 20:00:00 -2.9 6 Nordeste 9 Este 0 -- -- 100
2020-01-12 19:00:00 -2 7 Nordeste 9 Nordeste 0 -- -- 100
2020-01-12 18:00:00 -1.1 5 Este 12 Nordeste 0 -- -- 100
2020-01-12 17:00:00 -0.3 7 Nordeste 12 Este 0 -- -- 100
2020-01-12 16:00:00 0 8 Nordeste 13 Este 0 -- -- 100
2020-01-12 15:00:00 0.7 6 Este 10 Este 0 -- -- 100
2020-01-12 14:00:00 -0.2 7 Nordeste 9 Este 0 -- -- 100
2020-01-12 13:00:00 -0.7 6 Este 8 Este 0 -- -- 100
2020-01-12 12:00:00 -1.2 5 Este 8 Este 0 -- -- 100
2020-01-12 11:00:00 -3.3 5 Nordeste 8 Este 0 -- -- 99
2020-01-12 10:00:00 -5.2 7 Nordeste 9 Nordeste 0 -- -- 99
2020-01-12 09:00:00 -6.6 5 Nordeste 12 Nordeste 0 -- -- 99
2020-01-12 08:00:00 -6.4 8 Nordeste 10 Nordeste 0 -- -- 99
2020-01-12 07:00:00 -4.2 4 Este 10 Nordeste 0 -- -- --
2020-01-12 06:00:00 -4.9 10 Nordeste 12 Nordeste 0 -- -- --
2020-01-12 05:00:00 -4.9 8 Nordeste 10 Este 0 -- -- 100
2020-01-12 04:00:00 -5.2 9 Este 10 Este 0 -- -- --
2020-01-12 03:00:00 -4.2 4 Sudeste 8 Sudeste 0 -- -- --
2020-01-12 02:00:00 -1.9 5 Sudeste 9 Sudeste 0 -- -- --
2020-01-12 01:00:00 -0.1 7 Sudeste 8 Sudeste 0 -- -- --
2020-01-12 00:00:00 -0.6 2 Sur 9 Sudeste 0 -- -- --
2020-01-11 23:00:00 -0.1 3 Este 6 Este 0 -- -- --
2020-01-11 22:00:00 2 4 Sudeste 6 Sudeste 0 -- -- --
2020-01-11 21:00:00 1.9 0 Calma 4 Sudeste 0 -- -- --
2020-01-11 20:00:00 2.8 3 Sudeste 6 Sudeste 0 -- -- --
2020-01-11 19:00:00 3.4 5 Sudeste 9 Sudeste 0 -- -- --
2020-01-11 18:00:00 6.6 7 Sudeste 10 Sur 0 -- -- --
2020-01-11 17:00:00 10.3 4 Sudeste 12 Este 0 -- -- --
2020-01-11 16:00:00 10 5 Este 10 Este 0 -- -- --
2020-01-11 15:00:00 9.7 6 Nordeste 13 Este 0 -- -- --
2020-01-11 14:00:00 9 6 Este 14 Este 0 -- -- --
2020-01-11 13:00:00 7.5 10 Este 15 Este 0 -- -- --
2020-01-11 12:00:00 6.6 7 Este 13 Nordeste 0 -- -- --
2020-01-11 11:00:00 5.4 6 Nordeste 8 Nordeste 0 -- -- --
2020-01-11 10:00:00 4.2 3 Norte 9 Nordeste 0 -- -- --
2020-01-11 09:00:00 -1.4 10 Nordeste 12 Nordeste 0 -- -- --
2020-01-11 08:00:00 -1.6 8 Nordeste 11 Norte 0 -- -- --
2020-01-11 07:00:00 -2.1 9 Norte 11 Norte 0 -- -- --
2020-01-11 06:00:00 -2 8 Nordeste 12 Nordeste 0 -- -- --
2020-01-11 05:00:00 -1.5 11 Norte 12 Norte 0 -- -- --
2020-01-11 04:00:00 -1 12 Nordeste 12 Norte 0 -- -- --
2020-01-11 03:00:00 -0.7 9 Nordeste 12 Nordeste 0 -- -- --
2020-01-11 02:00:00 -0.7 8 Nordeste 12 Nordeste 0 -- -- --
2020-01-11 01:00:00 0.1 11 Nordeste 13 Nordeste 0 -- -- --
2020-01-11 00:00:00 -0.1 11 Nordeste 13 Nordeste 0 -- -- --
2020-01-10 23:00:00 0.8 11 Nordeste 13 Norte 0 -- -- --
2020-01-10 22:00:00 2.6 6 Nordeste 12 Este 0 -- -- --
2020-01-10 21:00:00 1.3 12 Este 13 Este 0 -- -- --
2020-01-10 20:00:00 2.1 13 Este 15 Este 0 -- -- --
2020-01-10 19:00:00 2.8 9 Sudeste 15 Nordeste 0 -- -- --
2020-01-10 18:00:00 6.5 13 Este 21 Nordeste 0 -- -- --
2020-01-10 17:00:00 9.5 14 Nordeste 22 Nordeste 0 -- -- 64
2020-01-10 16:00:00 10.1 18 Nordeste 26 Nordeste 0 -- -- 56
2020-01-10 15:00:00 10.6 14 Nordeste 26 Nordeste 0 -- -- 50
2020-01-10 14:00:00 10.1 13 Nordeste 27 Nordeste 0 -- -- 59
2020-01-10 13:00:00 8.7 17 Nordeste 26 Nordeste 0 -- -- 59
2020-01-10 12:00:00 9.1 12 Norte 17 Norte 0 -- -- 71
2020-01-10 11:00:00 7.8 9 Norte 12 Norte 0 -- -- 64
2020-01-10 10:00:00 3.6 8 Nordeste 13 Norte 0 -- -- 78
2020-01-10 09:00:00 -1.3 3 Norte 11 Norte 0 -- -- 98
2020-01-10 08:00:00 -1.1 3 Norte 8 Noroeste 0 -- -- 100
2020-01-10 07:00:00 -2.1 5 Noroeste 8 Noroeste 0 -- -- 100
2020-01-10 06:00:00 -2.6 3 Oeste 10 Nordeste 0 -- -- 100
2020-01-10 05:00:00 -1.7 10 Nordeste 13 Nordeste 0 -- -- 98
2020-01-10 04:00:00 0.6 4 Oeste 10 Sudoeste 0 -- -- 94
2020-01-10 03:00:00 1.3 9 Sudoeste 10 Sudoeste 0 -- -- 92
2020-01-10 02:00:00 1.6 7 Sudoeste 12 Oeste 0 -- -- 91
2020-01-10 01:00:00 1.3 12 Oeste 17 Oeste 0 -- -- 92
2020-01-10 00:00:00 2.2 8 Sudoeste 15 Oeste 0 -- -- 93
2020-01-09 23:00:00 1.9 9 Oeste 23 Oeste 0 -- -- 94
2020-01-09 22:00:00 4.1 13 Oeste 30 Oeste 0 -- -- 89
2020-01-09 21:00:00 4.8 18 Oeste 30 Oeste 0 -- -- 91
2020-01-09 20:00:00 5.7 11 Sudoeste 30 Oeste 0 -- -- 93
2020-01-09 19:00:00 6.3 23 Oeste 36 Oeste 0 -- -- 96
2020-01-09 18:00:00 7.2 17 Oeste 31 Oeste 0 -- -- 100
2020-01-09 17:00:00 7.3 17 Oeste 34 Sudoeste 0 -- -- 100
2020-01-09 16:00:00 7.5 23 Sudoeste 41 Sudoeste 0 -- -- 100
2020-01-09 15:00:00 7.3 26 Sudoeste 41 Sudoeste 0 -- -- 100
2020-01-09 14:00:00 6.8 22 Sudoeste 31 Sudoeste 0 -- -- 100
2020-01-09 13:00:00 5.5 12 Sudoeste 21 Sudoeste 0 -- -- 100
2020-01-09 12:00:00 4 14 Sudoeste 19 Sudoeste 0 -- -- 100
2020-01-09 11:00:00 3.1 13 Sudoeste 16 Sudoeste 0 -- -- 100
2020-01-09 10:00:00 2 11 Sudoeste 14 Sudoeste 0 -- -- 100
2020-01-09 09:00:00 1 9 Sudoeste 15 Sudoeste 0 -- -- 100
2020-01-09 08:00:00 1.3 8 Sudoeste 14 Oeste 0 -- -- 100
2020-01-09 07:00:00 0.7 11 Oeste 14 Sudoeste 0 -- -- 99
2020-01-09 06:00:00 1.1 14 Oeste 16 Sudoeste 0 -- -- 95
2020-01-09 05:00:00 1 9 Oeste 11 Oeste 0 -- -- 97
2020-01-09 04:00:00 0.6 4 Sudoeste 13 Noroeste 0 -- -- 96
2020-01-09 03:00:00 0.5 6 Oeste 9 Oeste 0 -- -- 97
2020-01-09 02:00:00 1.3 6 Sudoeste 9 Oeste 0 -- -- 100
2020-01-09 01:00:00 0.6 3 Oeste 7 Noroeste 0 -- -- 100
2020-01-09 00:00:00 3.4 3 Sudoeste 12 Sudoeste 0 -- -- 93
2020-01-08 23:00:00 3.1 10 Sudoeste 13 Sudoeste 0 -- -- 94
2020-01-08 22:00:00 4 8 Oeste 11 Oeste 0 -- -- 91
2020-01-08 21:00:00 4.5 6 Sudoeste 7 Sudoeste 0 -- -- 92
2020-01-08 20:00:00 5.2 2 Sudoeste 6 Sudoeste 0 -- -- 89
2020-01-08 19:00:00 6.7 5 Oeste 10 Sudoeste 0 -- -- 83
2020-01-08 18:00:00 9.7 8 Oeste 10 Sudoeste 0 -- -- 71
2020-01-08 17:00:00 16.4 0 Calma 6 Noroeste 0 -- -- 38
2020-01-08 16:00:00 15.6 3 Noroeste 7 Oeste 0 -- -- 46
2020-01-08 15:00:00 14 4 Noroeste 8 Este 0 -- -- 53
2020-01-08 14:00:00 9.7 6 Este 12 Nordeste 0 -- -- 66
2020-01-08 13:00:00 6.3 8 Este 13 Este 0 -- -- 77
2020-01-08 12:00:00 4.7 6 Este 10 Este 0 -- -- 94
2020-01-08 11:00:00 0.9 7 Nordeste 10 Este 0 -- -- 96
2020-01-08 10:00:00 -2.3 6 Este 10 Nordeste 0 -- -- 99
2020-01-08 09:00:00 -5 5 Nordeste 9 Este 0 -- -- 100
2020-01-08 08:00:00 -4.8 7 Este 9 Nordeste 0 -- -- 100
2020-01-08 07:00:00 -4.7 7 Nordeste 9 Nordeste 0 -- -- 100
2020-01-08 06:00:00 -4.8 5 Nordeste 8 Nordeste 0 -- -- 100
2020-01-08 05:00:00 -4.5 6 Nordeste 8 Nordeste 0 -- -- 100
2020-01-08 04:00:00 -4.8 6 Nordeste 9 Nordeste 0 -- -- 100
2020-01-08 03:00:00 -4.8 7 Nordeste 9 Nordeste 0 -- -- 100
2020-01-08 02:00:00 -4 6 Nordeste 10 Este 0 -- -- 100
2020-01-08 01:00:00 -3.8 8 Nordeste 10 Este 0 -- -- 100
2020-01-08 00:00:00 -3.4 6 Nordeste 8 Nordeste 0 -- -- 100
2020-01-07 23:00:00 -2.6 5 Nordeste 8 Nordeste 0 -- -- 100
2020-01-07 22:00:00 -0.4 0 Calma 4 Sudoeste 0 -- -- 100
2020-01-07 21:00:00 0.1 4 Oeste 8 Oeste 0 -- -- 100
2020-01-07 20:00:00 1 6 Oeste 8 Sudoeste 0 -- -- 100
2020-01-07 19:00:00 2.3 5 Sudoeste 8 Sudoeste 0 -- -- 99
2020-01-07 18:00:00 5.3 0 Calma 8 Norte 0 -- -- 90
2020-01-07 17:00:00 8.1 5 Norte 8 Norte 0 -- -- 88
2020-01-07 16:00:00 5.7 5 Nordeste 10 Nordeste 0 -- -- 100
2020-01-07 15:00:00 2.6 4 Este 11 Este 0 -- -- 100
2020-01-07 14:00:00 0.5 8 Este 12 Este 0 -- -- 100
2020-01-07 13:00:00 -0.2 8 Este 11 Nordeste 0 -- -- 100
2020-01-07 12:00:00 -0.7 5 Este 8 Este 0 -- -- 100
2020-01-07 11:00:00 -1.8 4 Este 9 Este 0 -- -- 100
2020-01-07 10:00:00 -2.5 6 Este 10 Este 0 -- -- 100
2020-01-07 09:00:00 -2.9 8 Este 12 Este 0 -- -- 100
2020-01-07 08:00:00 -2.7 6 Este 10 Este 0 -- -- 100
2020-01-07 07:00:00 -2.8 7 Este 9 Este 0 -- -- 100
2020-01-07 06:00:00 -2.5 7 Nordeste 12 Este 0 -- -- 100
2020-01-07 05:00:00 -2.4 8 Este 14 Este 0 -- -- 100
2020-01-07 04:00:00 -2.1 10 Este 15 Este 0 -- -- 100
2020-01-07 03:00:00 -2 11 Este 17 Este 0 -- -- 100
2020-01-07 02:00:00 -1.6 10 Este 17 Nordeste 0 -- -- 100
2020-01-07 01:00:00 -1.7 9 Este 18 Nordeste 0 -- -- 100
2020-01-07 00:00:00 -1.3 13 Nordeste 19 Nordeste 0 -- -- 100
2020-01-06 23:00:00 -1.3 11 Este 15 Este 0 -- -- 100
2020-01-06 22:00:00 -0.6 6 Nordeste 14 Este 0 -- -- 100
2020-01-06 21:00:00 -0.8 5 Este 14 Este 0 -- -- 100
2020-01-06 20:00:00 0.1 8 Este 12 Este 0 -- -- 100
2020-01-06 19:00:00 0.7 5 Nordeste 9 Nordeste 0 -- -- 100
2020-01-06 18:00:00 1.2 4 Sudoeste 6 Sur 0 -- -- 100
2020-01-06 17:00:00 1.9 5 Sudoeste 9 Sudoeste 0 -- -- 100
2020-01-06 16:00:00 2.9 3 Sur 9 Sudoeste 0 -- -- 100
2020-01-06 15:00:00 1.9 2 Norte 8 Nordeste 0 -- -- 100
2020-01-06 14:00:00 0.7 3 Sudeste 10 Noroeste 0 -- -- 98
2020-01-06 13:00:00 -0.4 3 Sur 12 Este 0 -- -- 95
2020-01-06 12:00:00 -1.7 7 Este 10 Este 0 -- -- 100
2020-01-06 11:00:00 -2.3 5 Este 10 Este 0 -- -- 100
2020-01-06 10:00:00 -3.8 6 Este 10 Este 0 -- -- 100